Location: B�hl
(48.6968°N, 8.1352°E)
Time: 23:02:31
(UTC+00:00)

ERBS - Pass Details

Date: 08 March 2021
Orbit: 408 x 412 km, 57.0° (Epoch: 14 April)

Event Time Altitude Azimuth Distance (km) Brightness Sun altitude
Rises 18:01:42 0° 283° (WNW) 2,354 8.1 -7.3°
Reaches altitude 10° 18:04:09 10° 301° (WNW) 1,491 6.1 -7.7°
Maximum altitude 18:06:44 20° 352° (N) 1,012 4.3 -8.2°
Drops below altitude 10° 18:09:19 10° 43° (NE) 1,490 4.7 -8.6°
Enters shadow 18:10:14 - 51° (NE) 1,792 5.0 -8.7°
